Flag for Germany

Past Weather in Karlsruhe, Baden-Württemberg, Germany — Yesterday and Last 2 Weeks

Now
61 °F

Cool.


Feels Like: 61 °F
Forecast: 74 / 49 °F
Wind: 3 mph from North

Location: Karlsruhe - Baden Wurttemberg
Current Time: Sep 19, 2020 at 1:38:54 am
Latest Report: Sep 19, 2020 at 12:50 am
Visibility: 6 mi
Pressure30.09 "Hg
Humidity: 77%
Dew Point: 54 °F
Location of KarlsruheLocation

Past Weather in Karlsruhe — Graph

°F

Karlsruhe Temperature Yesterday

Maximum temperature yesterday: 81 °F (at 3:50 pm)
Minimum temperature yesterday: 55 °F (at 5:50 am)
Average temperature yesterday: 67 °F

High & Low Weather Summary for the Past Weeks

 TemperatureHumidityPressure
High90 °F (Sep 15, 4:50 pm)100% (Sep 7, 12:20 am)30.36 "Hg (Sep 7, 12:20 am)
Low43 °F (Sep 7, 6:20 am)28% (Sep 9, 5:50 pm)29.98 "Hg (Sep 11, 5:50 pm)
Average66 °F68%30.16 "Hg
* Reported Sep 4 12:20 am — Sep 19 12:20 am, Karlsruhe. Weather by CustomWeather, © 2020

Note: Actual official high and low records may vary slightly from our data, if they occured in-between our weather recording intervals... More about our weather records

Karlsruhe Weather History for the Previous 24 Hours

Scroll right to see more
 ConditionsComfort  
Time TempWeatherWind HumidityBarometerVisibility
12:20 am
Sat, Sep 19
61 °FCool.3 mph77%30.09 "HgN/A
11:50 pm
Fri, Sep 18
63 °FMild.2 mph73%30.09 "HgN/A
11:20 pm64 °FClear.3 mph68%30.09 "Hg10 mi
10:50 pm64 °FClear.5 mph68%30.09 "Hg10 mi
10:20 pm64 °FClear.8 mph64%30.09 "Hg10 mi
9:50 pm66 °FClear.8 mph64%30.09 "Hg10 mi
9:20 pm66 °FClear.8 mph64%30.09 "Hg10 mi
8:50 pm68 °FClear.7 mph60%30.09 "Hg10 mi
8:20 pm72 °FClear.9 mph53%30.09 "Hg10 mi
7:50 pm73 °FClear.9 mph50%30.09 "Hg10 mi
7:20 pm75 °FSunny.12 mph47%30.09 "Hg10 mi
6:50 pm77 °FSunny.13 mph44%30.09 "Hg10 mi
6:20 pm79 °FSunny.15 mph42%30.09 "Hg10 mi
5:50 pm81 °FSunny.17 mph39%30.09 "Hg10 mi
5:20 pm81 °FSunny.16 mph42%30.09 "Hg10 mi
4:50 pm81 °FSunny.17 mph42%30.09 "Hg10 mi
4:20 pm81 °FPassing clouds.15 mph42%30.09 "HgN/A
3:50 pm81 °FPassing clouds.13 mph42%30.09 "HgN/A
3:20 pm79 °FPassing clouds.12 mph45%30.12 "HgN/A
2:50 pm77 °FPassing clouds.10 mph47%30.12 "HgN/A
2:20 pm77 °FSunny.10 mph47%30.12 "Hg10 mi
1:50 pm75 °FPassing clouds.9 mph50%30.15 "HgN/A
1:20 pm73 °FPassing clouds.9 mph50%30.15 "HgN/A
12:50 pm72 °FPassing clouds.10 mph53%30.15 "HgN/A
12:20 pm72 °FPassing clouds.12 mph53%30.15 "HgN/A
11:50 am70 °FPassing clouds.12 mph53%30.18 "HgN/A
11:20 am68 °FPassing clouds.10 mph56%30.18 "HgN/A
10:50 am66 °FPassing clouds.10 mph56%30.18 "HgN/A
10:20 am63 °FPassing clouds.10 mph64%30.18 "HgN/A
9:50 am61 °FPassing clouds.9 mph63%30.18 "HgN/A
9:20 am59 °FSunny.9 mph68%30.18 "Hg10 mi
8:20 am55 °FSunny.10 mph72%30.15 "Hg10 mi
7:50 am55 °FSunny.9 mph72%30.15 "Hg10 mi
7:20 am55 °FSunny.9 mph72%30.15 "Hg10 mi
6:50 am55 °FPassing clouds.9 mph72%30.15 "HgN/A
6:20 am55 °FClear.13 mph72%30.15 "Hg10 mi
5:50 am55 °FClear.12 mph72%30.15 "Hg10 mi
5:20 am57 °FClear.13 mph67%30.15 "Hg10 mi
4:50 am57 °FClear.12 mph67%30.15 "HgN/A
4:20 am57 °FClear.9 mph67%30.15 "HgN/A
3:50 am57 °FClear.13 mph67%30.15 "HgN/A
3:20 am59 °FClear.14 mph63%30.15 "HgN/A
2:50 am59 °FClear.14 mph63%30.15 "HgN/A
2:20 am61 °FClear.15 mph59%30.15 "HgN/A
1:50 am61 °FClear.14 mph63%30.15 "HgN/A
1:20 am61 °FClear.13 mph68%30.15 "HgN/A
Weather by CustomWeather, © 2020

See weather overview